Regional Weather Roundup
Issued by NWS

Home | Current Version | Previous Version | Graphics & Text | Print | Product List | Glossary Off
Versions: 1 2 3 4 5 6 7 8 9 10 11 12 13 14 15 16 17 18 19 20 21 22 23 24 25 26 27 28 29 30 31 32 33 34 35 36 37 38 39 40 41 42 43 44 45 46 47 48 49 50

000
ASUS43 KMKX 220200
RWRWI

WISCONSIN REGIONAL WEATHER ROUNDUP
NATIONAL WEATHER SERVICE MILWAUKEE/SULLIVAN WI
900 PM CDT THU AUG 21 2014

NOTE: "FAIR" INDICATES FEW OR NO CLOUDS BELOW 12,000 FEET WITH NO
SIGNIFICANT WEATHER AND/OR OBSTRUCTIONS TO VISIBILITY.

WIZ001-002-006>008-014>016-023>028-220300-
NORTHWEST WISCONSIN

CITY           SKY/WX    TMP DP  RH WIND       PRES   REMARKS
SUPERIOR ARPT  CLOUDY    61  60  97 NE12G20   29.90R
ASHLAND        CLOUDY    65  63  93 NE3       29.91R
HAYWARD        CLOUDY    70  68  93 E5        29.90R
SIREN          CLOUDY    72  70  93 E3        29.86R
RICE LAKE      CLOUDY    70  68  93 CALM      29.89R
LADYSMITH      CLOUDY    70  68  94 E8        29.90F FOG
EAU CLAIRE     CLOUDY    76  72  87 SE7       29.85R
MENOMONIE      CLEAR     74  72  91 CALM      29.85R
NEW RICHMOND   PTCLDY    73  72  96 E3        29.84S
OSCEOLA        PTCLDY    73  73 100 E3        29.86R
$$

WIZ003>005-009-010-017-018-220300-
NORTH CENTRAL WISCONSIN

CITY           SKY/WX    TMP DP  RH WIND       PRES   REMARKS
WOODRUFF       CLOUDY    67  63  87 SE8       29.95S
RHINELANDER    CLOUDY    64  63  96 SE9       29.97R
EAGLE RIVER    CLOUDY    65  64  96 SE3       29.96R
LAND O LAKES   CLOUDY    66  63  90 SE5       29.97S
PHILLIPS       CLOUDY    66  65  95 SE6       29.92S
TOMAHAWK       CLOUDY    65  63  92 SE3       29.95S
MEDFORD        CLOUDY    67  66  97 E6        29.93R FOG
MERRILL        CLOUDY    66  66  99 E7        29.94S FOG
$$

WIZ029-030-035-036-043>047-220300-
CENTRAL WISCONSIN

CITY           SKY/WX    TMP DP  RH WIND       PRES   REMARKS
WAUSAU         CLOUDY    66  65  96 E9        29.92S FOG
MOSINEE        FOG       66  66 100 E6        29.95R VSB 1/2
MARSHFIELD     MOCLDY    73  70  90 SE7       29.91S
STEVENS POINT  CLOUDY    68  66  95 E9        29.94R FOG
WAUPACA        CLOUDY    73  70  91 CALM      29.94R
WAUTOMA        NOT AVBL
WISC RAPIDS    MOCLDY    73  70  90 SE6       29.93S
CAMP DOUGLAS   NOT AVBL
$$

WIZ011>013-019>022-031-037>040-048>050-220300-
NORTHEAST WISCONSIN

CITY           SKY/WX    TMP DP  RH WIND       PRES   REMARKS
ANTIGO         CLOUDY    63  63 100 SE9       29.97R FOG
STURGEON BAY   CLOUDY    64  61  88 E5        29.97S
GREEN BAY      CLOUDY    67  65  93 E7        29.96R
MANITOWOC      CLOUDY    66  64  94 CALM      29.97R FOG
APPLETON       CLOUDY    70  66  88 VRB5      29.95  FOG
CLINTONVILLE   CLOUDY    68  64  88 E3        29.95R
OSHKOSH        CLOUDY    71  69  93 E5        29.93R
$$

WIZ032>034-041-042-053>061-220300-
SOUTHWEST WISCONSIN

CITY           SKY/WX    TMP DP  RH WIND       PRES   REMARKS
LA CROSSE      PTCLDY    78  71  79 SE6       29.86S HX  80
SPARTA         CLEAR     74  71  89 SE5       29.90S
VIROQUA        FAIR      73  73 100 S6        29.92R
BOSCOBEL       CLEAR     74  71  91 CALM      29.90S
PRAIRIE DU CHI CLEAR     74  71  89 E3        29.88S
PLATTEVILLE    FAIR      72  70  95 CALM      29.93R
$$

WIZ056-057-062-063-064-067-068-220300-
SOUTH CENTRAL WISCONSIN

CITY           SKY/WX    TMP DP  RH WIND       PRES   REMARKS
BARABOO/DELLS  CLOUDY    73  70  89 CALM      29.92S
LONE ROCK      NOT AVBL
WATERTOWN      CLOUDY    73  72  98 CALM      29.94R
MADISON        MOCLDY    74  71  91 CALM      29.92R
MIDDLETON      CLOUDY    76  75  96 S3        29.93R
MONROE         CLOUDY    73  72  94 CALM      29.93R
JANESVILLE     MOCLDY    75  73  94 E3        29.92R
$$

WIZ051-052-058>065-066-070>072-220300-
SOUTHEAST WISCONSIN

CITY           SKY/WX    TMP DP  RH WIND       PRES   REMARKS
MILWAUKEE      MOCLDY    72  69  90 SE6       29.94R
WAUKESHA       CLOUDY    72  70  94 E6        29.95R
MILWAUKEE/TIMM CLOUDY    72  66  83 CALM      29.95R
RACINE         CLOUDY    73  69  87 S5        29.96R
BURLINGTON     CLOUDY    70  69  97 CALM      29.94R
KENOSHA        PTCLDY    72  71  97 SE5       29.94R FOG
FOND DU LAC    MOCLDY    73  69  87 S6        29.94R
SHEBOYGAN      FOG       67  67 100 CALM      29.96R VSB 1/4
WEST BEND      CLOUDY    70  64  83 CALM      29.96R FOG
JUNEAU         CLOUDY    73  46  37 CALM      29.95R
$$

LSZ147-162-220300-
LAKE SUPERIOR

STATION/POSITION TIME  TEMP    WIND        PRES    WAVE
                       AIR SEA DIR/SP/G            HT/PER
                 (UTC) (F)     (DEG/KT/KT) (MB)    (FT/S)
W MID LAKE BUOY  0050   59 59   60/ 14/ 16 1013.1R   2/ 4
DEVILS ISLAND    0100   61      70/ 13/ 15 1012.7R
PORT WING        0100   62      40/ 14/ 16 1012.2S
SAXON HARBOR     0140   66        CALM     1012.2S
$$

LMZ867-665-643>646-220300-
LAKE MICHIGAN

STATION/POSITION TIME  TEMP    WIND        PRES    WAVE
                       AIR SEA DIR/SP/G            HT/PER
                 (UTC) (F)     (DEG/KT/KT) (MB)    (FT/S)
N MID LAKE BUOY  0050   65 65   80/  6/  6 1014.0R   0
NORTHPORT PIER   0100   65     120/  3/  5 1014.2S
SISTER BAY       0141   66     100/  7/  9   N/A
ALGOMA LAKESHORE 0108           40/  5/  6   N/A
KEWAUNEE LAKESHO 0100   65      40/  3/  4 1013.3R
SHEBOYGAN LAKESH 0100   67 65  100/  7/  7 1013.6F
ATWATER BUOY     0100   69     180/  2/  2 1014.5R
MILWAUKEE LAKESH 0100   70     120/  2/  4   N/A
S MID LAKE BUOY  0050   69 68   90/  4/  6 1013.2F   0
KENOSHA   LAKESH 0100   71     180/  2/  3 1013.2R
$$

TC  - TEMPERATURE IN CELSIUS
VSB - VISIBILITY IN STATUTE MILES
WCI - WIND CHILL INDEX
HX  - HEAT INDEX



USA.gov is the U.S. government's official web portal to all federal, state and local government web resources and services.